RH
50 49 49 48 49 52 54 52 54 56 57 56 56 58 58 60 62 71 67 63 70 65 69 72 63 56 50 53 54 59 66 71 79 79 77 67 61 60 57 60 66 68 68
61 62 66 68 71 74 70 72 76 81 75 70 64 63 72 79 76 72 74 77 82 79 64 62 60 55 53 60 58 68 66 68 78 86 89 83 83 83 86 85 78 79 77
73 67 65 61 56 56 57 53 56 51 44 44 46 45 42 42 44 52 54 54 57 58 51 40 50 60 56 54 58 68 86 79 93 89 92 98 100 98 92 94 82 88 82
48 47 48 48 44 42 41 39 39 40 40 38 38 41 41 40 40 36 36 42 47 46 48 50 40 47 62 67 69 72 79 87 98 98 93 100 98 99 89 87 91 97 100
46 43 41 41 38 34 36 32 24 21 22 21 19 18 21 27 31 35 31 24 20 22 28 38 51 56 51 58 63 71 72 74 100 100 100 100 88 86 87 98 100 93 100
44 42 42 40 37 36 21 14 11 12 14 17 18 18 16 15 15 16 14 14 13 13 14 17 21 38 52 57 79 88 95 94 100 100 92 98 75 88 100 100 96 98 74
37 34 33 35 36 24 15 13 16 20 20 20 21 23 24 23 21 19 17 16 15 15 14 15 16 20 45 57 72 98 82 69 100 100 100 100 100 79 99 100 100 100 100
34 38 36 29 18 15 15 23 26 24 24 24 25 22 20 20 19 18 18 13 10 10 11 12 14 17 20 32 46 56 46 42 100 100 100 100 100 100 93 100 100 100 98
23 24 23 18 16 20 25 23 22 22 23 22 19 19 21 22 22 28 16 15 17 11 8 9 10 13 17 22 30 40 40 41 100 100 100 100 100 100 100 98 93 95 98
19 17 17 22 25 24 21 20 21 21 19 19 22 30 36 28 34 24 23 13 7 6 6 7 12 16 14 19 24 26 32 52 100 100 100 100 100 98 100 100 100 100 100
26 26 24 21 19 18 17 16 17 18 32 39 41 43 36 35 24 14 11 7 5 5 6 10 27 63 39 28 51 33 27 55 91 100 100 100 100 100 100 100 100 100 100
22 18 16 15 17 20 25 32 41 45 46 40 36 32 35 33 29 15 6 4 4 5 6 11 53 94 83 74 60 79 51 54 71 100 100 100 100 100 100 100 100 100 100
19 25 32 38 45 49 54 54 51 42 34 29 26 27 27 24 26 19 8 6 5 6 8 10 14 19 33 35 43 48 58 51 60 71 100 100 100 100 100 100 100 100 100
40 49 54 61 64 59 51 38 31 30 31 25 27 25 24 23 24 20 12 7 7 7 9 12 12 14 28 67 51 26 21 30 42 60 71 99 100 100 100 100 100 100 100
54 58 59 52 41 39 37 36 38 37 34 34 34 32 28 21 19 19 19 12 9 9 10 13 16 23 31 25 15 16 14 26 20 35 49 71 93 97 99 93 100 100 98
53 46 40 42 43 47 46 46 47 43 42 40 28 29 30 26 23 19 19 23 22 16 13 13 15 15 14 16 18 20 21 23 20 23 28 39 48 60 65 68 63 65 71
40 43 44 46 49 44 44 49 50 51 51 47 43 42 41 40 36 35 27 24 26 29 31 30 26 19 17 19 20 19 19 19 21 22 24 27 31 43 49 58 58 54 53
49 50 47 49 50 59 69 73 69 72 61 56 58 59 57 51 45 40 40 38 33 28 27 28 36 37 31 24 16 17 20 22 23 24 25 25 26 28 35 46 49 53 57
46 49 53 60 63 64 69 72 68 68 68 71 74 76 73 68 65 63 56 49 45 43 35 32 28 25 25 30 32 29 22 20 22 23 23 22 23 25 30 33 38 38 42
59 62 64 72 78 85 85 83 83 88 85 88 85 79 83 83 76 76 75 69 63 57 52 49 44 45 41 37 32 27 24 28 32 34 34 33 32 31 30 28 29 34 35
60 63 69 72 76 90 92 82 77 75 81 80 81 87 88 94 94 90 88 79 76 72 69 65 60 55 50 53 50 48 43 43 38 32 25 24 22 22 22 24 28 33 34
76 66 71 82 80 82 94 72 64 57 68 81 88 92 98 93 91 96 100 100 91 75 74 70 69 66 69 65 60 57 52 53 50 47 50 51 40 31 28 26 23 22 22
71 80 99 100 100 100 93 76 95 95 69 64 64 63 67 76 74 69 95 89 81 82 85 79 68 63 65 64 64 64 63 62 64 63 60 46 39 40 46 45 39 32 26
100 100 100 97 80 72 95 77 84 94 89 84 71 74 76 74 82 77 77 91 90 86 79 76 84 72 67 67 66 66 58 55 60 58 58 60 64 60 48 43 44 46 48
87 74 72 78 64 68 78 70 99 77 75 63 80 83 78 82 93 97 89 100 100 98 88 82 64 70 74 72 66 68 69 61 52 56 53 51 43 45 44 43 39 36 34
66 66 88 90 100 99 100 100 82 71 69 80 89 100 100 98 89 98 100 100 88 94 84 77 78 77 79 84 73 63 59 60 60 51 44 45 46 45 30 24 22 28 31
Wind_Speed
60 61 63 64 66 68 69 70 71 71 72 73 73 74 75 73 74 75 76 76 77 77 77 77 76 72 69 68 66 67 66 64 63 62 60 60 60 60 60 59 57 56 54
67 68 69 71 72 74 75 76 78 79 81 82 83 83 83 85 84 85 85 87 87 87 86 84 81 80 77 75 73 73 69 67 64 64 64 62 63 63 64 62 60 58 58
73 75 76 79 80 81 82 84 87 89 89 87 88 90 90 90 89 90 92 92 92 93 91 88 86 86 85 85 80 76 71 67 65 63 59 65 67 67 65 64 63 61 61
77 78 81 82 83 83 86 88 89 90 93 94 92 93 93 93 94 94 94 96 94 96 97 97 93 90 91 90 88 81 74 71 66 64 61 64 69 67 66 66 65 67 67
80 81 81 83 86 89 90 90 87 86 87 88 88 88 89 91 93 95 95 96 96 95 95 96 98 97 94 91 88 83 79 68 64 70 73 70 69 68 65 66 70 70 70
85 86 87 88 89 87 83 83 85 87 88 88 88 89 88 87 88 89 91 92 93 96 96 96 96 93 93 91 90 84 79 67 67 61 67 73 69 64 66 71 72 71 77
87 89 88 88 86 85 85 86 86 81 79 79 78 80 82 84 86 88 88 90 91 92 92 92 94 93 93 88 84 82 84 69 71 68 68 76 78 72 69 67 69 72 72
87 87 87 86 85 85 84 80 79 80 81 82 82 82 82 85 88 88 91 89 84 83 83 83 85 84 86 92 94 88 85 73 70 69 68 74 80 82 72 76 76 74 72
88 86 86 87 84 79 78 78 80 80 80 83 83 81 81 78 73 76 77 73 73 71 68 71 71 77 84 86 86 89 84 76 70 68 66 80 84 80 74 77 75 78 80
87 84 80 76 76 77 77 77 78 78 78 76 70 61 61 60 62 63 67 66 65 58 59 57 61 67 72 77 81 82 82 78 75 78 74 80 79 86 88 79 81 77 78
69 71 73 75 74 73 72 71 67 58 49 47 52 57 55 58 59 45 48 58 52 51 48 45 45 52 63 69 71 76 79 80 76 81 81 90 88 85 88 85 82 84 83
71 70 68 63 56 50 45 42 40 39 44 47 45 45 46 51 56 43 40 41 37 37 40 50 40 45 58 59 64 68 73 81 83 86 85 96 99 96 92 92 88 89 91
57 49 42 37 34 31 29 32 37 37 36 39 40 41 40 45 50 48 37 33 28 26 35 54 64 63 60 63 62 67 75 79 92 97 101 106 103 106 100 90 94 97 95
35 28 25 23 23 25 27 27 27 28 28 29 30 32 35 39 42 44 37 28 24 22 27 43 55 60 63 67 70 67 69 80 83 95 103 109 114 111 111 109 108 105 107
19 18 18 19 18 18 19 21 21 23 23 25 26 26 28 31 33 36 34 26 20 20 21 28 40 48 59 66 65 67 63 68 73 84 92 100 107 109 113 114 116 117 115
15 16 15 13 12 14 17 19 20 20 20 22 23 24 26 27 29 30 31 30 26 21 18 20 26 35 42 48 50 54 59 64 67 70 77 88 97 102 104 108 109 109 110
11 9 10 11 13 14 16 19 21 23 23 25 28 30 29 29 29 28 27 26 25 25 24 22 19 22 28 34 41 46 52 57 61 64 69 73 76 84 91 97 100 99 97
5 6 9 12 13 17 19 22 24 28 30 31 33 35 36 36 35 33 31 30 27 24 20 19 22 26 24 22 26 32 40 46 51 55 59 63 65 69 74 81 85 87 91
5 7 9 11 14 17 20 22 24 27 29 32 34 36 38 39 40 41 40 37 34 29 26 24 22 20 19 22 25 25 26 30 37 43 48 52 57 61 63 65 68 70 71
7 9 12 14 16 18 21 22 24 27 28 30 33 35 37 39 41 42 43 43 42 40 36 33 30 29 27 25 23 21 22 25 29 31 33 36 38 41 45 48 52 54 57
9 10 13 15 16 19 23 25 28 30 30 30 32 35 37 40 41 44 46 46 46 45 43 41 40 37 34 31 29 28 28 29 30 31 31 34 37 40 42 45 47 50 52
14 16 19 20 23 24 26 29 30 31 32 33 33 35 38 39 39 41 45 48 49 48 47 46 43 40 38 38 36 35 33 32 33 34 36 38 41 41 43 46 48 50 52
18 18 21 22 23 27 30 32 34 35 33 33 37 39 38 38 41 42 45 50 52 54 54 49 47 46 44 42 40 39 38 38 38 39 40 39 41 43 46 49 51 53 55
24 24 24 24 29 33 34 35 36 39 39 40 42 43 42 41 45 49 50 52 56 61 59 56 53 50 48 47 45 45 44 42 42 41 41 44 44 46 46 48 51 54 57
33 32 34 35 39 42 41 44 43 46 48 45 44 48 48 47 49 51 54 54 62 61 60 60 57 54 52 51 50 48 47 46 46 46 45 45 46 50 51 52 53 56 59
39 41 43 40 41 45 44 51 52 51 49 50 49 51 53 51 52 54 58 63 64 64 65 65 63 61 58 57 54 53 51 50 50 50 50 50 50 53 55 56 56 58 60
Wind_Direction
284 284 285 284 285 285 285 284 284 283 283 282 282 281 281 279 278 277 279 280 280 280 279 279 278 275 274 276 276 279 280 279 278 276 276 276 276 277 277 277 278 278 278
286 286 285 285 285 285 284 284 283 281 281 282 282 281 280 279 278 277 276 277 277 277 277 276 275 273 271 273 274 279 279 278 276 274 274 275 275 276 276 275 273 273 273
280 280 280 281 282 282 282 282 282 282 281 280 280 280 280 279 279 277 277 277 276 275 275 274 273 272 271 272 274 275 276 276 275 273 271 274 275 274 272 273 272 272 274
281 281 281 282 284 285 285 284 283 282 282 281 279 279 278 277 276 275 274 274 273 271 271 272 271 269 270 271 272 272 272 274 272 272 271 270 270 270 270 271 272 273 274
283 282 282 282 283 285 286 286 285 284 283 282 282 279 277 275 274 274 273 272 272 271 269 268 267 267 267 269 269 269 269 269 273 272 269 268 269 270 269 271 272 273 271
283 284 284 286 288 290 289 289 289 288 286 284 283 283 281 279 277 276 274 272 271 269 266 266 265 265 264 263 265 267 269 263 266 267 270 274 270 269 269 271 274 268 268
285 286 288 291 291 289 290 290 289 287 287 286 287 285 285 283 283 280 278 275 273 270 267 266 263 262 260 260 257 256 258 261 258 269 272 276 271 268 269 272 273 272 273
288 288 289 290 289 289 288 286 286 288 288 288 285 286 285 285 284 284 283 280 278 274 270 266 262 258 256 255 254 253 256 256 254 258 260 256 260 263 265 264 263 267 275
288 289 288 288 287 286 285 285 284 285 287 286 287 287 286 285 286 286 286 286 279 274 270 265 263 257 253 251 251 250 251 251 248 249 249 256 256 256 262 260 261 267 269
288 287 286 285 285 285 285 286 285 286 287 287 290 291 291 290 289 293 294 281 276 275 270 263 262 260 255 253 251 247 244 243 243 245 245 242 251 256 258 260 264 263 265
286 287 287 286 286 286 285 284 285 289 293 297 300 298 296 295 298 301 283 280 279 273 264 254 248 257 258 253 248 248 244 239 238 241 241 243 248 253 253 257 262 257 263
290 290 291 291 291 291 292 294 300 304 303 302 302 306 307 306 307 317 301 289 279 269 256 238 224 229 244 247 246 244 244 235 234 235 239 242 244 249 254 258 259 261 266
293 294 296 297 298 302 307 309 305 302 302 309 310 313 311 313 318 323 312 299 285 272 253 244 246 252 252 252 252 247 243 240 233 235 236 243 245 251 252 253 259 261 265
297 299 304 307 307 310 310 306 308 317 315 318 322 320 323 321 321 325 326 317 300 283 258 254 259 260 257 254 260 261 256 249 242 237 238 242 248 250 254 254 258 260 260
304 314 317 315 318 320 319 322 323 325 324 323 322 324 328 329 330 333 338 336 324 302 275 256 255 258 257 260 264 264 261 257 255 250 247 246 248 252 255 257 258 260 263
312 317 317 321 323 327 329 332 330 330 331 332 337 342 343 343 343 344 346 348 348 345 319 292 274 266 260 259 262 262 263 262 261 258 256 255 255 256 258 259 262 264 265
319 322 328 330 344 347 352 355 353 352 351 352 355 355 355 356 357 358 356 354 353 349 344 335 319 295 280 273 269 266 263 261 260 260 259 259 259 258 259 260 263 266 267
334 356 4 2 356 359 356 353 357 353 354 356 359 360 359 1 1 360 359 359 355 351 347 341 332 325 317 301 281 270 265 264 263 262 262 263 262 261 260 261 263 264 265
360 360 356 359 2 1 358 354 355 354 356 358 360 1 1 360 0 359 358 357 354 351 348 343 339 333 328 318 312 303 289 275 270 268 268 268 264 262 262 264 266 267 268
354 359 7 5 3 1 358 357 355 354 353 354 354 356 358 357 356 355 354 353 351 350 346 343 341 338 334 328 322 315 305 295 290 284 280 277 274 272 271 270 269 268 268
346 347 347 348 347 349 347 346 344 343 345 346 347 348 351 351 352 353 352 350 347 345 344 342 339 336 332 328 324 319 316 309 303 298 291 287 284 282 280 279 277 276 275
325 327 329 330 332 334 332 330 332 335 335 339 342 345 345 345 347 351 352 353 347 341 340 336 335 333 331 326 324 321 317 315 311 305 299 296 293 290 287 284 283 283 282
304 313 316 321 318 319 318 319 325 329 330 329 327 330 333 336 340 344 345 343 343 345 344 335 331 327 326 324 322 318 315 313 310 305 304 301 296 293 291 289 286 285 284
298 298 303 303 298 305 309 310 311 313 318 319 326 329 328 329 332 335 335 337 337 336 336 336 334 327 325 322 319 318 315 311 309 307 304 303 299 296 291 286 284 283 282
281 282 285 291 295 303 303 308 309 311 315 316 319 323 324 323 325 325 328 329 328 329 332 333 329 329 326 323 319 315 314 312 308 306 303 302 302 300 296 292 290 287 284
280 289 291 288 293 299 299 302 305 309 313 313 315 316 320 321 321 322 321 322 323 325 325 325 328 325 328 326 319 316 313 311 310 309 305 302 301 301 302 298 294 292 290